Simultaneous Nadir Overpasses (SNOs) Predictions

Prediction of SNOs between GOES-16 and METOP-B Satellite Orbit:

Table of predicted SNOs for the next 14.0 days since TLE Epoch: 8/29/2025
Index Date Time (GOES-16) GOES-16 Lat,Lon METOP-B Lat,Lon Distance(km) Time Diff (sec)
1 08/31/2025 04:13:40 -0.03,-104.67 -0.64,-107.55 327.89 80
2 09/01/2025 03:50:22 -0.02,-104.66 0.47,-102.57 238.85 80
3 09/02/2025 16:11:54 0.04,-104.70 0.58,-107.15 279.94 80
4 09/03/2025 15:48:36 0.03,-104.69 -0.53,-102.18 286.78 80
5 09/05/2025 04:10:18 -0.04,-104.64 -0.49,-106.80 245.47 80
6 09/06/2025 03:46:59 -0.03,-104.64 0.57,-101.81 321.24 80
7 09/07/2025 16:08:32 0.04,-104.68 0.42,-106.41 197.41 80
8 09/08/2025 15:45:13 0.03,-104.67 -0.70,-101.43 369.49 80
9 09/10/2025 04:06:55 -0.04,-104.63 -0.36,-106.05 162.39 80
10 09/11/2025 03:43:36 -0.04,-104.62 0.76,-101.07 404.29 80
11 09/12/2025 16:05:09 0.05,-104.65 0.28,-105.66 114.70 80
